SCP
2 1 0 1 1 1 1 2 5 8 8 7 5 4 2 1 0 0 0 0 0 0
3 3 2 1 1 1 0 1 2 5 9 8 7 5 2 1 1 0 0 0 0 0
0 0 1 1 1 1 1 1 0 4 7 9 6 4 2 1 1 0 0 0 0 0
0 0 0 0 1 2 2 2 2 2 1 4 6 6 4 2 1 0 0 0 0 0
0 0 0 0 0 0 0 2 3 3 3 3 4 6 5 2 1 0 0 0 0 0
0 0 0 0 0 0 0 0 1 1 2 3 3 6 5 3 1 0 0 0 0 0
0 0 0 0 0 0 0 0 0 0 1 1 1 2 5 4 3 1 0 0 0 0
0 0 0 0 0 0 0 0 0 0 0 0 1 2 3 4 3 2 1 0 0 0
0 0 0 0 0 0 0 0 0 0 0 0 1 1 1 1 4 3 1 1 0 0
0 0 0 0 0 0 0 0 0 0 0 0 0 0 1 0 1 3 2 1 0 0
0 0 0 0 0 0 0 0 0 0 0 0 0 0 0 0 0 1 2 1 0 0
0 0 0 0 0 0 0 0 0 0 0 0 0 0 0 0 0 0 1 1 0 0
0 0 0 0 0 0 0 0 0 0 0 0 0 0 0 0 0 0 1 1 0 0
0 0 0 0 0 0 0 0 0 0 0 0 0 0 0 0 0 0 0 1 0 0
Wind_Speed_500mb
52 57 67 79 88 90 86 90 98 94 107 115 105 95 87 100 96 94 80 69 83 85
20 21 49 63 73 81 85 98 91 96 98 109 113 107 105 100 109 109 95 89 76 97
22 19 21 32 45 61 66 69 78 96 92 92 104 110 115 117 112 120 114 96 91 103
42 40 38 34 30 34 57 66 71 78 86 99 102 102 107 122 120 120 121 121 107 97
50 48 49 47 48 43 44 51 60 70 76 90 102 98 107 114 115 113 122 125 122 108
56 62 64 58 55 53 55 56 63 66 71 80 87 100 115 112 111 115 118 124 129 124
66 59 57 60 65 63 66 65 63 65 68 70 79 87 100 115 115 113 117 124 128 123
59 62 61 64 62 65 72 77 80 78 76 72 71 76 88 102 111 117 118 123 122 124
68 65 74 68 64 69 70 79 82 83 85 78 74 71 73 86 107 115 123 126 120 117
74 68 70 70 74 72 74 70 72 84 80 80 81 76 72 72 82 108 114 124 121 121
73 67 78 66 59 65 73 75 74 77 83 78 76 75 77 78 76 80 111 130 131 131
78 86 86 78 84 79 68 74 77 77 82 85 86 78 74 73 80 81 83 126 136 144
82 77 79 80 82 84 81 70 73 84 88 93 92 78 77 70 68 75 85 93 135 132
74 76 81 85 84 82 78 81 87 94 94 84 79 79 77 73 66 68 77 87 102 135
Wind_Direction_500mb
278 280 275 265 259 252 250 247 249 250 246 243 245 247 247 239 238 242 240 237 232 233
48 342 279 272 273 271 264 252 251 254 256 250 246 248 248 244 239 241 240 238 239 230
293 297 313 323 276 272 272 271 264 252 255 256 253 250 248 247 245 241 242 239 237 231
311 304 298 301 302 291 274 273 268 261 258 263 262 254 251 249 250 246 245 244 238 239
315 311 310 308 287 287 282 270 274 272 266 260 262 264 256 254 255 256 250 248 242 239
314 313 313 305 301 296 284 276 276 274 275 271 261 259 261 260 256 253 254 253 250 241
311 312 308 309 308 298 295 290 280 279 278 278 271 263 259 261 258 256 257 253 253 247
310 310 304 305 301 302 300 295 294 294 286 283 278 270 261 259 258 257 257 252 249 249
312 304 303 305 299 301 294 299 304 306 298 291 287 280 273 264 257 253 246 244 251 250
301 304 309 303 299 299 293 295 303 308 304 298 294 289 284 279 267 250 243 245 243 241
317 312 295 295 305 299 294 295 301 302 303 299 297 294 294 287 284 270 250 244 237 238
312 311 309 308 290 294 294 294 296 298 302 304 300 298 301 297 289 280 267 242 242 232
306 309 312 310 309 296 287 290 292 296 300 299 297 297 299 301 297 284 274 261 245 239
313 305 308 309 310 307 294 285 289 294 299 298 297 296 301 305 296 286 278 264 247 222
Wind_Speed_850mb
52 57 67 79 88 90 86 90 98 94 107 115 105 95 87 100 96 94 80 69 83 85
20 21 49 63 73 81 85 98 91 96 98 109 113 107 105 100 109 109 95 89 76 97
22 19 21 32 45 61 66 69 78 96 92 92 104 110 115 117 112 120 114 96 91 103
42 40 38 34 30 34 57 66 71 78 86 99 102 102 107 122 120 120 121 121 107 97
50 48 49 47 48 43 44 51 60 70 76 90 102 98 107 114 115 113 122 125 122 108
56 62 64 58 55 53 55 56 63 66 71 80 87 100 115 112 111 115 118 124 129 124
66 59 57 60 65 63 66 65 63 65 68 70 79 87 100 115 115 113 117 124 128 123
59 62 61 64 62 65 72 77 80 78 76 72 71 76 88 102 111 117 118 123 122 124
68 65 74 68 64 69 70 79 82 83 85 78 74 71 73 86 107 115 123 126 120 117
74 68 70 70 74 72 74 70 72 84 80 80 81 76 72 72 82 108 114 124 121 121
73 67 78 66 59 65 73 75 74 77 83 78 76 75 77 78 76 80 111 130 131 131
78 86 86 78 84 79 68 74 77 77 82 85 86 78 74 73 80 81 83 126 136 144
82 77 79 80 82 84 81 70 73 84 88 93 92 78 77 70 68 75 85 93 135 132
74 76 81 85 84 82 78 81 87 94 94 84 79 79 77 73 66 68 77 87 102 135
Wind_Direction_850mb
278 280 275 265 259 252 250 247 249 250 246 243 245 247 247 239 238 242 240 237 232 233
48 342 279 272 273 271 264 252 251 254 256 250 246 248 248 244 239 241 240 238 239 230
293 297 313 323 276 272 272 271 264 252 255 256 253 250 248 247 245 241 242 239 237 231
311 304 298 301 302 291 274 273 268 261 258 263 262 254 251 249 250 246 245 244 238 239
315 311 310 308 287 287 282 270 274 272 266 260 262 264 256 254 255 256 250 248 242 239
314 313 313 305 301 296 284 276 276 274 275 271 261 259 261 260 256 253 254 253 250 241
311 312 308 309 308 298 295 290 280 279 278 278 271 263 259 261 258 256 257 253 253 247
310 310 304 305 301 302 300 295 294 294 286 283 278 270 261 259 258 257 257 252 249 249
312 304 303 305 299 301 294 299 304 306 298 291 287 280 273 264 257 253 246 244 251 250
301 304 309 303 299 299 293 295 303 308 304 298 294 289 284 279 267 250 243 245 243 241
317 312 295 295 305 299 294 295 301 302 303 299 297 294 294 287 284 270 250 244 237 238
312 311 309 308 290 294 294 294 296 298 302 304 300 298 301 297 289 280 267 242 242 232
306 309 312 310 309 296 287 290 292 296 300 299 297 297 299 301 297 284 274 261 245 239
313 305 308 309 310 307 294 285 289 294 299 298 297 296 301 305 296 286 278 264 247 222